Time,TemperatureF,DewpointF,PressureIn,WindDirection,WindDirectionDegrees,WindSpeedMPH,WindSpeedGustMPH,Humidity,HourlyPrecipIn,Conditions,Clouds,dailyrainin,SoftwareType,DateUTC
2013-09-07 00:01:00,77.0,66.5,29.92,SE,137,1.0,3.0,70,0.00,,---,0.00,VWS V14.00,2013-09-07 05:01:00,
2013-09-07 00:06:00,76.9,66.4,29.92,SE,137,1.0,4.0,70,0.00,,---,0.00,VWS V14.00,2013-09-07 05:06:00,
2013-09-07 00:11:00,76.8,66.7,29.93,SE,137,1.0,3.0,71,0.00,,---,0.00,VWS V14.00,2013-09-07 05:11:00,
2013-09-07 00:16:00,76.7,66.6,29.93,SE,136,2.0,3.0,71,0.00,,---,0.00,VWS V14.00,2013-09-07 05:16:00,
2013-09-07 00:21:00,76.6,66.5,29.93,SE,137,2.0,4.0,71,0.00,,---,0.00,VWS V14.00,2013-09-07 05:21:00,
2013-09-07 00:26:00,76.5,66.8,29.93,SE,136,1.0,4.0,72,0.00,,---,0.00,VWS V14.00,2013-09-07 05:26:00,
2013-09-07 00:31:00,76.4,66.7,29.93,SE,137,0.0,2.0,72,0.00,,---,0.00,VWS V14.00,2013-09-07 05:31:00,
2013-09-07 00:36:00,76.2,66.9,29.93,SE,137,0.0,0.0,73,0.00,,---,0.00,VWS V14.00,2013-09-07 05:36:00,
2013-09-07 00:41:00,76.1,66.8,29.93,SE,137,0.0,0.0,73,0.00,,---,0.00,VWS V14.00,2013-09-07 05:41:00,
2013-09-07 00:46:00,76.0,66.7,29.93,SE,137,0.0,0.0,73,0.00,,---,0.00,VWS V14.00,2013-09-07 05:46:00,
2013-09-07 00:51:00,75.8,66.5,29.93,SE,137,2.0,4.0,73,0.00,,---,0.00,VWS V14.00,2013-09-07 05:51:00,
2013-09-07 00:56:00,75.7,66.4,29.93,SE,137,0.0,4.0,73,0.00,,---,0.00,VWS V14.00,2013-09-07 05:56:00,
2013-09-07 01:01:00,75.7,66.4,29.93,SE,137,0.0,0.0,73,0.00,,---,0.00,VWS V14.00,2013-09-07 06:01:00,
2013-09-07 01:06:00,75.7,66.4,29.93,SE,137,0.0,0.0,73,0.00,,---,0.00,VWS V14.00,2013-09-07 06:06:00,
2013-09-07 01:11:00,75.6,66.3,29.93,SE,137,0.0,0.0,73,0.00,,---,0.00,VWS V14.00,2013-09-07 06:11:00,
2013-09-07 01:16:00,75.6,66.3,29.93,SE,136,0.0,0.0,73,0.00,,---,0.00,VWS V14.00,2013-09-07 06:16:00,
2013-09-07 01:21:00,75.6,65.9,29.93,SE,137,0.0,3.0,72,0.00,,---,0.00,VWS V14.00,2013-09-07 06:21:00,
2013-09-07 01:26:00,75.6,65.9,29.93,SE,137,0.0,0.0,72,0.00,,---,0.00,VWS V14.00,2013-09-07 06:26:00,
2013-09-07 01:31:00,75.5,65.8,29.92,SE,137,0.0,0.0,72,0.00,,---,0.00,VWS V14.00,2013-09-07 06:31:00,
2013-09-07 01:36:00,75.5,65.8,29.93,SE,137,0.0,0.0,72,0.00,,---,0.00,VWS V14.00,2013-09-07 06:36:00,
2013-09-07 01:41:00,75.5,65.8,29.93,SE,137,0.0,0.0,72,0.00,,---,0.00,VWS V14.00,2013-09-07 06:41:00,
2013-09-07 01:46:00,75.5,65.8,29.93,SE,137,0.0,0.0,72,0.00,,---,0.00,VWS V14.00,2013-09-07 06:46:00,
2013-09-07 01:51:00,75.4,65.8,29.93,SE,136,0.0,0.0,72,0.00,,---,0.00,VWS V14.00,2013-09-07 06:51:00,
2013-09-07 01:56:00,75.4,65.8,29.93,SE,136,0.0,0.0,72,0.00,,---,0.00,VWS V14.00,2013-09-07 06:56:00,
2013-09-07 02:01:00,75.3,65.7,29.93,SE,137,0.0,0.0,72,0.00,,---,0.00,VWS V14.00,2013-09-07 07:01:00,
2013-09-07 02:06:00,75.2,65.6,29.93,SE,137,0.0,0.0,72,0.00,,---,0.00,VWS V14.00,2013-09-07 07:06:00,
2013-09-07 02:11:00,75.1,65.5,29.93,SE,137,0.0,0.0,72,0.00,,---,0.00,VWS V14.00,2013-09-07 07:11:00,
2013-09-07 02:16:00,75.0,65.4,29.92,SE,136,0.0,0.0,72,0.00,,---,0.00,VWS V14.00,2013-09-07 07:16:00,
2013-09-07 02:21:00,74.9,65.3,29.92,SE,137,0.0,0.0,72,0.00,,---,0.00,VWS V14.00,2013-09-07 07:21:00,
2013-09-07 02:26:00,74.7,65.5,29.92,SE,137,0.0,0.0,73,0.00,,---,0.00,VWS V14.00,2013-09-07 07:26:00,
2013-09-07 02:31:00,74.5,65.3,29.92,SE,136,0.0,0.0,73,0.00,,---,0.00,VWS V14.00,2013-09-07 07:31:00,
2013-09-07 02:36:00,74.4,65.6,29.92,SE,136,0.0,0.0,74,0.00,,---,0.00,VWS V14.00,2013-09-07 07:36:00,
2013-09-07 02:41:00,74.2,65.4,29.92,SE,136,0.0,0.0,74,0.00,,---,0.00,VWS V14.00,2013-09-07 07:41:00,
2013-09-07 02:46:00,74.1,65.3,29.92,SE,137,0.0,0.0,74,0.00,,---,0.00,VWS V14.00,2013-09-07 07:46:00,
2013-09-07 02:51:00,74.1,65.3,29.92,SE,137,0.0,0.0,74,0.00,,---,0.00,VWS V14.00,2013-09-07 07:51:00,
2013-09-07 02:56:00,73.9,65.5,29.92,SE,137,0.0,0.0,75,0.00,,---,0.00,VWS V14.00,2013-09-07 07:56:00,
2013-09-07 03:01:00,73.7,65.3,29.92,SE,136,0.0,0.0,75,0.00,,---,0.00,VWS V14.00,2013-09-07 08:01:00,
2013-09-07 03:06:00,73.6,65.6,29.92,SE,136,0.0,0.0,76,0.00,,---,0.00,VWS V14.00,2013-09-07 08:06:00,
2013-09-07 03:11:00,73.5,65.5,29.92,SE,136,0.0,0.0,76,0.00,,---,0.00,VWS V14.00,2013-09-07 08:11:00,
2013-09-07 03:16:00,73.4,65.4,29.92,SE,136,0.0,0.0,76,0.00,,---,0.00,VWS V14.00,2013-09-07 08:16:00,
2013-09-07 03:21:00,73.3,65.3,29.92,SE,136,0.0,0.0,76,0.00,,---,0.00,VWS V14.00,2013-09-07 08:21:00,
2013-09-07 03:26:00,73.1,65.1,29.91,SE,136,0.0,0.0,76,0.00,,---,0.00,VWS V14.00,2013-09-07 08:26:00,
2013-09-07 03:31:00,73.0,65.0,29.91,SE,137,0.0,0.0,76,0.00,,---,0.00,VWS V14.00,2013-09-07 08:31:00,
2013-09-07 03:36:00,72.9,65.3,29.92,SE,136,0.0,0.0,77,0.00,,---,0.00,VWS V14.00,2013-09-07 08:36:00,
2013-09-07 03:41:00,72.8,65.2,29.92,SE,136,0.0,0.0,77,0.00,,---,0.00,VWS V14.00,2013-09-07 08:41:00,
2013-09-07 03:46:00,72.6,65.0,29.92,SE,136,0.0,0.0,77,0.00,,---,0.00,VWS V14.00,2013-09-07 08:46:00,
2013-09-07 03:51:00,72.5,65.3,29.92,SE,136,0.0,0.0,78,0.00,,---,0.00,VWS V14.00,2013-09-07 08:51:00,
2013-09-07 03:56:00,72.2,65.0,29.92,SE,136,0.0,0.0,78,0.00,,---,0.00,VWS V14.00,2013-09-07 08:56:00,
2013-09-07 04:01:00,72.0,65.1,29.92,SE,137,0.0,0.0,79,0.00,,---,0.00,VWS V14.00,2013-09-07 09:01:00,
2013-09-07 04:06:00,71.8,64.9,29.93,SE,136,0.0,0.0,79,0.00,,---,0.00,VWS V14.00,2013-09-07 09:06:00,
2013-09-07 04:11:00,71.6,64.8,29.93,SE,136,0.0,0.0,79,0.00,,---,0.00,VWS V14.00,2013-09-07 09:11:00,
2013-09-07 04:16:00,71.4,64.9,29.92,SE,136,0.0,0.0,80,0.00,,---,0.00,VWS V14.00,2013-09-07 09:16:00,
2013-09-07 04:21:00,71.2,65.1,29.93,SE,136,0.0,0.0,81,0.00,,---,0.00,VWS V14.00,2013-09-07 09:21:00,
2013-09-07 04:26:00,71.1,65.0,29.92,SE,137,0.0,0.0,81,0.00,,---,0.00,VWS V14.00,2013-09-07 09:26:00,
2013-09-07 04:31:00,71.0,64.9,29.93,SE,137,0.0,0.0,81,0.00,,---,0.00,VWS V14.00,2013-09-07 09:31:00,
2013-09-07 04:36:00,70.9,64.8,29.93,SE,137,0.0,0.0,81,0.00,,---,0.00,VWS V14.00,2013-09-07 09:36:00,
2013-09-07 04:41:00,70.9,64.8,29.93,SE,136,0.0,0.0,81,0.00,,---,0.00,VWS V14.00,2013-09-07 09:41:00,
2013-09-07 04:46:00,70.8,65.0,29.93,SE,137,0.0,0.0,82,0.00,,---,0.00,VWS V14.00,2013-09-07 09:46:00,
2013-09-07 04:51:00,70.7,64.9,29.93,SE,136,0.0,0.0,82,0.00,,---,0.00,VWS V14.00,2013-09-07 09:51:00,
2013-09-07 04:56:00,70.7,64.9,29.93,SE,137,0.0,0.0,82,0.00,,---,0.00,VWS V14.00,2013-09-07 09:56:00,
2013-09-07 05:01:00,70.6,64.8,29.93,SE,136,0.0,0.0,82,0.00,,---,0.00,VWS V14.00,2013-09-07 10:01:00,
2013-09-07 05:06:00,70.4,64.7,29.93,SE,136,0.0,0.0,82,0.00,,---,0.00,VWS V14.00,2013-09-07 10:06:00,
2013-09-07 05:11:00,70.4,64.7,29.93,SE,136,0.0,0.0,82,0.00,,---,0.00,VWS V14.00,2013-09-07 10:11:00,
2013-09-07 05:16:00,70.3,64.6,29.93,SE,136,0.0,0.0,82,0.00,,---,0.00,VWS V14.00,2013-09-07 10:16:00,
2013-09-07 05:21:00,70.2,64.8,29.93,SE,136,0.0,0.0,83,0.00,,---,0.00,VWS V14.00,2013-09-07 10:21:00,
2013-09-07 05:26:00,70.1,64.7,29.93,SE,137,0.0,0.0,83,0.00,,---,0.00,VWS V14.00,2013-09-07 10:26:00,
2013-09-07 05:31:00,69.9,64.5,29.93,SE,137,0.0,0.0,83,0.00,,---,0.00,VWS V14.00,2013-09-07 10:31:00,
2013-09-07 05:36:00,69.9,64.5,29.93,SE,136,0.0,0.0,83,0.00,,---,0.00,VWS V14.00,2013-09-07 10:36:00,
2013-09-07 05:41:00,69.8,64.4,29.93,SE,136,0.0,0.0,83,0.00,,---,0.00,VWS V14.00,2013-09-07 10:41:00,
2013-09-07 05:46:00,69.6,64.6,29.93,SE,136,0.0,0.0,84,0.00,,---,0.00,VWS V14.00,2013-09-07 10:46:00,
2013-09-07 05:51:00,69.5,64.1,29.93,SE,137,0.0,3.0,83,0.00,,---,0.00,VWS V14.00,2013-09-07 10:51:00,
2013-09-07 05:56:00,69.4,64.0,29.94,SE,137,0.0,3.0,83,0.00,,---,0.00,VWS V14.00,2013-09-07 10:56:00,
2013-09-07 06:01:00,69.4,64.0,29.94,SE,137,0.0,0.0,83,0.00,,---,0.00,VWS V14.00,2013-09-07 11:01:00,
2013-09-07 06:06:00,69.4,64.0,29.94,SE,137,0.0,0.0,83,0.00,,---,0.00,VWS V14.00,2013-09-07 11:06:00,
2013-09-07 06:11:00,69.4,64.0,29.94,SE,136,0.0,0.0,83,0.00,,---,0.00,VWS V14.00,2013-09-07 11:11:00,
2013-09-07 06:16:00,69.4,64.0,29.94,SE,137,0.0,0.0,83,0.00,,---,0.00,VWS V14.00,2013-09-07 11:16:00,
2013-09-07 06:21:00,69.5,64.1,29.94,SE,137,0.0,0.0,83,0.00,,---,0.00,VWS V14.00,2013-09-07 11:21:00,
2013-09-07 06:26:00,69.4,64.0,29.94,SE,136,0.0,0.0,83,0.00,,---,0.00,VWS V14.00,2013-09-07 11:26:00,
2013-09-07 06:31:00,69.4,64.4,29.94,SE,136,0.0,0.0,84,0.00,,---,0.00,VWS V14.00,2013-09-07 11:31:00,
2013-09-07 06:36:00,69.4,64.4,29.94,SE,136,0.0,0.0,84,0.00,,---,0.00,VWS V14.00,2013-09-07 11:36:00,
2013-09-07 06:41:00,69.2,64.2,29.94,SE,137,0.0,0.0,84,0.00,,---,0.00,VWS V14.00,2013-09-07 11:41:00,
2013-09-07 06:46:00,69.1,64.1,29.94,SE,137,0.0,0.0,84,0.00,,---,0.00,VWS V14.00,2013-09-07 11:46:00,
2013-09-07 06:51:00,69.0,64.0,29.94,SE,137,0.0,0.0,84,0.00,,---,0.00,VWS V14.00,2013-09-07 11:51:00,
2013-09-07 06:56:00,68.8,63.8,29.94,SE,136,0.0,0.0,84,0.00,,---,0.00,VWS V14.00,2013-09-07 11:56:00,
2013-09-07 07:01:00,68.7,64.0,29.94,SE,136,0.0,0.0,85,0.00,,---,0.00,VWS V14.00,2013-09-07 12:01:00,
2013-09-07 07:06:00,68.6,63.9,29.95,SE,136,0.0,0.0,85,0.00,,---,0.00,VWS V14.00,2013-09-07 12:06:00,
2013-09-07 07:11:00,68.5,63.8,29.94,SE,136,0.0,0.0,85,0.00,,---,0.00,VWS V14.00,2013-09-07 12:11:00,
2013-09-07 07:16:00,68.4,63.7,29.94,SE,136,0.0,0.0,85,0.00,,---,0.00,VWS V14.00,2013-09-07 12:16:00,
2013-09-07 07:21:00,68.3,63.6,29.95,SE,136,0.0,0.0,85,0.00,,---,0.00,VWS V14.00,2013-09-07 12:21:00,
2013-09-07 07:26:00,68.2,63.9,29.94,SE,136,0.0,0.0,86,0.00,,---,0.00,VWS V14.00,2013-09-07 12:26:00,
2013-09-07 07:31:00,68.3,64.0,29.94,SE,137,0.0,0.0,86,0.00,,---,0.00,VWS V14.00,2013-09-07 12:31:00,
2013-09-07 07:36:00,68.3,64.0,29.94,SE,137,0.0,0.0,86,0.00,,---,0.00,VWS V14.00,2013-09-07 12:36:00,
2013-09-07 07:41:00,68.5,64.2,29.94,SE,137,0.0,0.0,86,0.00,,---,0.00,VWS V14.00,2013-09-07 12:41:00,
2013-09-07 07:46:00,68.6,64.6,29.94,SE,137,0.0,0.0,87,0.00,,---,0.00,VWS V14.00,2013-09-07 12:46:00,
2013-09-07 07:51:00,68.8,64.8,29.94,SE,137,0.0,0.0,87,0.00,,---,0.00,VWS V14.00,2013-09-07 12:51:00,
2013-09-07 07:56:00,69.0,65.0,29.95,SE,137,0.0,0.0,87,0.00,,---,0.00,VWS V14.00,2013-09-07 12:56:00,
2013-09-07 08:01:00,69.3,65.3,29.94,SE,137,0.0,0.0,87,0.00,,---,0.00,VWS V14.00,2013-09-07 13:01:00,
2013-09-07 08:06:00,69.6,65.6,29.94,SE,137,0.0,0.0,87,0.00,,---,0.00,VWS V14.00,2013-09-07 13:06:00,
2013-09-07 08:11:00,70.0,65.6,29.95,SE,137,0.0,0.0,86,0.00,,---,0.00,VWS V14.00,2013-09-07 13:11:00,
2013-09-07 08:16:00,70.6,66.2,29.95,SE,136,0.0,0.0,86,0.00,,---,0.00,VWS V14.00,2013-09-07 13:16:00,
2013-09-07 08:21:00,71.2,66.5,29.95,SE,137,0.0,3.0,85,0.00,,---,0.00,VWS V14.00,2013-09-07 13:21:00,
2013-09-07 08:26:00,71.7,66.6,29.95,SE,137,1.0,1.0,84,0.00,,---,0.00,VWS V14.00,2013-09-07 13:26:00,
2013-09-07 08:31:00,72.4,66.9,29.95,SE,137,0.0,3.0,83,0.00,,---,0.00,VWS V14.00,2013-09-07 13:31:00,
2013-09-07 08:36:00,73.0,67.2,29.95,SE,137,1.0,3.0,82,0.00,,---,0.00,VWS V14.00,2013-09-07 13:36:00,
2013-09-07 08:41:00,73.7,67.5,29.95,SE,137,2.0,5.0,81,0.00,,---,0.00,VWS V14.00,2013-09-07 13:41:00,
2013-09-07 08:46:00,74.4,67.8,29.95,SE,137,2.0,2.0,80,0.00,,---,0.00,VWS V14.00,2013-09-07 13:46:00,
2013-09-07 08:51:00,75.0,67.7,29.95,SE,137,0.0,4.0,78,0.00,,---,0.00,VWS V14.00,2013-09-07 13:51:00,
2013-09-07 08:56:00,75.5,68.2,29.94,SE,137,4.0,4.0,78,0.00,,---,0.00,VWS V14.00,2013-09-07 13:56:00,
2013-09-07 09:01:00,76.2,68.1,29.95,SE,137,4.0,6.0,76,0.00,,---,0.00,VWS V14.00,2013-09-07 14:01:00,
2013-09-07 09:06:00,76.8,67.5,29.95,SE,137,4.0,7.0,73,0.00,,---,0.00,VWS V14.00,2013-09-07 14:06:00,
2013-09-07 09:11:00,77.4,68.1,29.95,SE,137,4.0,6.0,73,0.00,,---,0.00,VWS V14.00,2013-09-07 14:11:00,
2013-09-07 09:16:00,78.0,67.8,29.95,SE,137,3.0,7.0,71,0.00,,---,0.00,VWS V14.00,2013-09-07 14:16:00,
2013-09-07 09:21:00,78.5,67.5,29.95,SE,137,4.0,6.0,69,0.00,,---,0.00,VWS V14.00,2013-09-07 14:21:00,
2013-09-07 09:26:00,78.9,67.4,29.95,SE,137,5.0,9.0,68,0.00,,---,0.00,VWS V14.00,2013-09-07 14:26:00,
2013-09-07 09:31:00,79.4,67.5,29.95,SSE,155,6.0,12.0,67,0.00,,---,0.00,VWS V14.00,2013-09-07 14:31:00,
2013-09-07 09:36:00,79.9,67.5,29.95,SSE,157,5.0,11.0,66,0.00,,---,0.00,VWS V14.00,2013-09-07 14:36:00,
2013-09-07 09:41:00,80.3,67.5,29.95,SSE,162,7.0,7.0,65,0.00,,---,0.00,VWS V14.00,2013-09-07 14:41:00,
2013-09-07 09:46:00,80.7,67.4,29.95,SSE,165,4.0,10.0,64,0.00,,---,0.00,VWS V14.00,2013-09-07 14:46:00,
2013-09-07 09:51:00,81.0,67.2,29.95,SSE,168,5.0,13.0,63,0.00,,---,0.00,VWS V14.00,2013-09-07 14:51:00,
2013-09-07 09:56:00,81.3,67.1,29.95,South,170,8.0,12.0,62,0.00,,---,0.00,VWS V14.00,2013-09-07 14:56:00,
2013-09-07 10:01:00,81.7,67.4,29.95,SSE,167,11.0,12.0,62,0.00,,---,0.00,VWS V14.00,2013-09-07 15:01:00,
2013-09-07 10:06:00,81.9,67.1,29.95,SSE,164,6.0,10.0,61,0.00,,---,0.00,VWS V14.00,2013-09-07 15:06:00,
2013-09-07 10:11:00,82.2,67.4,29.95,South,171,5.0,12.0,61,0.00,,---,0.00,VWS V14.00,2013-09-07 15:11:00,
2013-09-07 10:16:00,82.7,67.9,29.96,South,173,6.0,11.0,61,0.00,,---,0.00,VWS V14.00,2013-09-07 15:16:00,
2013-09-07 10:21:00,83.0,67.7,29.96,SSE,155,10.0,12.0,60,0.00,,---,0.00,VWS V14.00,2013-09-07 15:21:00,
2013-09-07 10:26:00,83.3,67.5,29.96,SSE,168,9.0,13.0,59,0.00,,---,0.00,VWS V14.00,2013-09-07 15:26:00,
2013-09-07 10:31:00,83.6,68.3,29.95,South,170,5.0,10.0,60,0.00,,---,0.00,VWS V14.00,2013-09-07 15:31:00,
2013-09-07 10:36:00,83.9,67.6,29.95,South,174,4.0,13.0,58,0.00,,---,0.00,VWS V14.00,2013-09-07 15:36:00,
2013-09-07 10:41:00,84.2,68.8,29.96,SSE,155,9.0,11.0,60,0.00,,---,0.00,VWS V14.00,2013-09-07 15:41:00,
2013-09-07 10:46:00,84.7,68.8,29.95,SSE,155,1.0,9.0,59,0.00,,---,0.00,VWS V14.00,2013-09-07 15:46:00,
2013-09-07 10:51:00,85.2,68.8,29.96,SSE,157,9.0,9.0,58,0.00,,---,0.00,VWS V14.00,2013-09-07 15:51:00,
2013-09-07 10:56:00,85.4,69.0,29.95,SSE,157,6.0,9.0,58,0.00,,---,0.00,VWS V14.00,2013-09-07 15:56:00,
2013-09-07 11:01:00,85.7,69.2,29.95,South,169,7.0,11.0,58,0.00,,---,0.00,VWS V14.00,2013-09-07 16:01:00,
2013-09-07 11:06:00,86.0,69.5,29.95,South,169,5.0,6.0,58,0.00,,---,0.00,VWS V14.00,2013-09-07 16:06:00,
2013-09-07 11:11:00,86.4,69.4,29.95,South,169,4.0,10.0,57,0.00,,---,0.00,VWS V14.00,2013-09-07 16:11:00,
2013-09-07 11:16:00,86.7,69.7,29.95,South,170,4.0,9.0,57,0.00,,---,0.00,VWS V14.00,2013-09-07 16:16:00,
2013-09-07 11:21:00,86.9,69.8,29.95,SSE,165,7.0,10.0,57,0.00,,---,0.00,VWS V14.00,2013-09-07 16:21:00,
2013-09-07 11:26:00,87.1,70.0,29.95,SSE,168,4.0,11.0,57,0.00,,---,0.00,VWS V14.00,2013-09-07 16:26:00,
2013-09-07 11:31:00,87.4,70.8,29.95,SSE,167,5.0,9.0,58,0.00,,---,0.00,VWS V14.00,2013-09-07 16:31:00,
2013-09-07 11:36:00,87.7,70.6,29.95,SSE,168,4.0,7.0,57,0.00,,---,0.00,VWS V14.00,2013-09-07 16:36:00,
2013-09-07 11:41:00,88.1,71.5,29.95,SSE,168,5.0,7.0,58,0.00,,---,0.00,VWS V14.00,2013-09-07 16:41:00,
2013-09-07 11:46:00,88.4,70.2,29.95,SSE,167,5.0,7.0,55,0.00,,---,0.00,VWS V14.00,2013-09-07 16:46:00,
2013-09-07 11:51:00,88.9,70.7,29.95,South,173,6.0,9.0,55,0.00,,---,0.00,VWS V14.00,2013-09-07 16:51:00,
2013-09-07 11:56:00,89.4,71.1,29.94,South,174,6.0,7.0,55,0.00,,---,0.00,VWS V14.00,2013-09-07 16:56:00,
2013-09-07 12:01:00,89.7,70.9,29.94,SSE,165,4.0,9.0,54,0.00,,---,0.00,VWS V14.00,2013-09-07 17:01:00,
2013-09-07 12:06:00,90.1,70.7,29.94,SSE,165,0.0,6.0,53,0.00,,---,0.00,VWS V14.00,2013-09-07 17:06:00,
2013-09-07 12:11:00,90.5,71.1,29.94,SSE,165,5.0,6.0,53,0.00,,---,0.00,VWS V14.00,2013-09-07 17:11:00,
2013-09-07 12:16:00,90.8,71.3,29.94,SSE,161,2.0,7.0,53,0.00,,---,0.00,VWS V14.00,2013-09-07 17:16:00,
2013-09-07 12:21:00,91.4,72.4,29.94,SSE,161,4.0,5.0,54,0.00,,---,0.00,VWS V14.00,2013-09-07 17:21:00,
2013-09-07 12:26:00,91.9,70.6,29.94,SSE,165,7.0,8.0,50,0.00,,---,0.00,VWS V14.00,2013-09-07 17:26:00,
2013-09-07 12:31:00,92.3,71.0,29.94,SSE,165,4.0,9.0,50,0.00,,---,0.00,VWS V14.00,2013-09-07 17:31:00,
2013-09-07 12:36:00,92.5,70.6,29.94,South,171,6.0,10.0,49,0.00,,---,0.00,VWS V14.00,2013-09-07 17:36:00,
2013-09-07 12:41:00,92.9,70.3,29.93,South,173,5.0,7.0,48,0.00,,---,0.00,VWS V14.00,2013-09-07 17:41:00,
2013-09-07 12:46:00,93.3,70.1,29.94,South,180,2.0,9.0,47,0.00,,---,0.00,VWS V14.00,2013-09-07 17:46:00,
2013-09-07 12:51:00,93.8,70.5,29.93,South,180,4.0,9.0,47,0.00,,---,0.00,VWS V14.00,2013-09-07 17:51:00,
2013-09-07 12:56:00,94.1,70.2,29.93,South,169,5.0,11.0,46,0.00,,---,0.00,VWS V14.00,2013-09-07 17:56:00,
2013-09-07 13:01:00,94.3,70.4,29.93,South,169,6.0,9.0,46,0.00,,---,0.00,VWS V14.00,2013-09-07 18:01:00,
2013-09-07 13:06:00,94.6,70.0,29.93,South,188,6.0,11.0,45,0.00,,---,0.00,VWS V14.00,2013-09-07 18:06:00,
2013-09-07 13:11:00,94.9,69.6,29.93,South,190,8.0,14.0,44,0.00,,---,0.00,VWS V14.00,2013-09-07 18:11:00,
2013-09-07 13:16:00,94.9,70.2,29.93,South,190,4.0,9.0,45,0.00,,---,0.00,VWS V14.00,2013-09-07 18:16:00,
2013-09-07 13:20:00,95.3,70.6,29.93,South,190,3.0,11.0,45,0.00,,---,0.00,VWS V14.00,2013-09-07 18:20:00,
2013-09-07 13:25:00,95.6,70.2,29.92,South,188,5.0,11.0,44,0.00,,---,0.00,VWS V14.00,2013-09-07 18:25:00,
2013-09-07 13:30:00,95.9,71.2,29.92,SSW,192,3.0,11.0,45,0.00,,---,0.00,VWS V14.00,2013-09-07 18:30:00,
2013-09-07 13:35:00,96.1,69.3,29.92,South,178,2.0,11.0,42,0.00,,---,0.00,VWS V14.00,2013-09-07 18:35:00,
2013-09-07 13:40:00,96.4,70.3,29.92,South,181,3.0,10.0,43,0.00,,---,0.00,VWS V14.00,2013-09-07 18:40:00,
2013-09-07 13:45:00,96.6,70.4,29.92,SSW,192,4.0,11.0,43,0.00,,---,0.00,VWS V14.00,2013-09-07 18:45:00,
2013-09-07 13:50:00,96.7,70.5,29.91,South,181,5.0,11.0,43,0.00,,---,0.00,VWS V14.00,2013-09-07 18:50:00,
2013-09-07 13:55:00,96.8,69.9,29.91,South,182,4.0,12.0,42,0.00,,---,0.00,VWS V14.00,2013-09-07 18:55:00,
2013-09-07 14:00:00,97.0,70.8,29.91,SSE,167,7.0,11.0,43,0.00,,---,0.00,VWS V14.00,2013-09-07 19:00:00,
2013-09-07 14:05:00,97.1,70.9,29.91,South,179,4.0,10.0,43,0.00,,---,0.00,VWS V14.00,2013-09-07 19:05:00,
2013-09-07 14:10:00,97.2,71.7,29.90,SSE,148,10.0,11.0,44,0.00,,---,0.00,VWS V14.00,2013-09-07 19:10:00,
2013-09-07 14:15:00,97.0,71.5,29.90,SSE,147,6.0,10.0,44,0.00,,---,0.00,VWS V14.00,2013-09-07 19:15:00,
2013-09-07 14:20:00,97.0,70.8,29.90,SSE,153,6.0,9.0,43,0.00,,---,0.00,VWS V14.00,2013-09-07 19:20:00,
2013-09-07 14:25:00,96.8,70.6,29.89,SE,145,4.0,10.0,43,0.00,,---,0.00,VWS V14.00,2013-09-07 19:25:00,
2013-09-07 14:30:00,96.9,71.4,29.89,SE,144,3.0,10.0,44,0.00,,---,0.00,VWS V14.00,2013-09-07 19:30:00,
2013-09-07 14:35:00,97.1,72.2,29.89,SE,144,5.0,7.0,45,0.00,,---,0.00,VWS V14.00,2013-09-07 19:35:00,
2013-09-07 14:40:00,97.4,70.5,29.89,SSE,154,5.0,10.0,42,0.00,,---,0.00,VWS V14.00,2013-09-07 19:40:00,
2013-09-07 14:45:00,97.6,70.7,29.89,SSE,154,2.0,10.0,42,0.00,,---,0.00,VWS V14.00,2013-09-07 19:45:00,
2013-09-07 14:50:00,97.7,70.7,29.89,SSE,156,4.0,10.0,42,0.00,,---,0.00,VWS V14.00,2013-09-07 19:50:00,
2013-09-07 14:55:00,98.0,70.3,29.89,SSE,157,7.0,10.0,41,0.00,,---,0.00,VWS V14.00,2013-09-07 19:55:00,
2013-09-07 15:00:00,98.1,70.4,29.89,SSE,149,8.0,10.0,41,0.00,,---,0.00,VWS V14.00,2013-09-07 20:00:00,
2013-09-07 15:05:00,98.3,70.6,29.88,SSE,150,7.0,9.0,41,0.00,,---,0.00,VWS V14.00,2013-09-07 20:05:00,
2013-09-07 15:10:00,98.5,68.5,29.88,SSE,155,1.0,7.0,38,0.00,,---,0.00,VWS V14.00,2013-09-07 20:10:00,
2013-09-07 15:15:00,98.7,69.5,29.88,SSE,155,5.0,8.0,39,0.00,,---,0.00,VWS V14.00,2013-09-07 20:15:00,
2013-09-07 15:20:00,98.8,70.3,29.87,SSE,155,3.0,6.0,40,0.00,,---,0.00,VWS V14.00,2013-09-07 20:20:00,
2013-09-07 15:25:00,99.0,69.0,29.87,SSE,156,4.0,8.0,38,0.00,,---,0.00,VWS V14.00,2013-09-07 20:25:00,
2013-09-07 15:30:00,98.7,69.5,29.87,SE,146,4.0,11.0,39,0.00,,---,0.00,VWS V14.00,2013-09-07 20:30:00,
2013-09-07 15:35:00,98.6,69.4,29.87,SE,146,8.0,8.0,39,0.00,,---,0.00,VWS V14.00,2013-09-07 20:35:00,
2013-09-07 15:40:00,98.6,68.6,29.87,SSE,148,3.0,8.0,38,0.00,,---,0.00,VWS V14.00,2013-09-07 20:40:00,
2013-09-07 15:45:00,98.6,70.1,29.86,SSE,148,7.0,8.0,40,0.00,,---,0.00,VWS V14.00,2013-09-07 20:45:00,
2013-09-07 15:50:00,98.7,69.5,29.86,SSE,148,3.0,9.0,39,0.00,,---,0.00,VWS V14.00,2013-09-07 20:50:00,
2013-09-07 15:55:00,98.9,68.9,29.86,SSE,151,7.0,10.0,38,0.00,,---,0.00,VWS V14.00,2013-09-07 20:55:00,
2013-09-07 16:00:00,98.7,68.7,29.86,SE,146,4.0,10.0,38,0.00,,---,0.00,VWS V14.00,2013-09-07 21:00:00,
2013-09-07 16:05:00,98.5,68.5,29.86,SSE,155,5.0,11.0,38,0.00,,---,0.00,VWS V14.00,2013-09-07 21:05:00,
2013-09-07 16:10:00,98.6,68.6,29.86,SSE,148,5.0,11.0,38,0.00,,---,0.00,VWS V14.00,2013-09-07 21:10:00,
2013-09-07 16:15:00,98.2,68.3,29.85,SE,145,5.0,9.0,38,0.00,,---,0.00,VWS V14.00,2013-09-07 21:15:00,
2013-09-07 16:20:00,98.2,68.3,29.85,SSE,155,5.0,9.0,38,0.00,,---,0.00,VWS V14.00,2013-09-07 21:20:00,
2013-09-07 16:25:00,98.2,68.3,29.85,SSE,157,4.0,9.0,38,0.00,,---,0.00,VWS V14.00,2013-09-07 21:25:00,
2013-09-07 16:30:00,98.3,69.1,29.85,SSE,157,6.0,9.0,39,0.00,,---,0.00,VWS V14.00,2013-09-07 21:30:00,
2013-09-07 16:35:00,98.3,68.3,29.85,SSE,155,7.0,8.0,38,0.00,,---,0.00,VWS V14.00,2013-09-07 21:35:00,
2013-09-07 16:40:00,98.3,67.6,29.85,SSE,155,5.0,6.0,37,0.00,,---,0.00,VWS V14.00,2013-09-07 21:40:00,
2013-09-07 16:45:00,98.2,68.3,29.84,SSE,155,4.0,6.0,38,0.00,,---,0.00,VWS V14.00,2013-09-07 21:45:00,
2013-09-07 16:50:00,98.1,68.9,29.84,SSE,155,2.0,4.0,39,0.00,,---,0.00,VWS V14.00,2013-09-07 21:50:00,
2013-09-07 16:55:00,98.3,68.3,29.84,SSE,156,4.0,9.0,38,0.00,,---,0.00,VWS V14.00,2013-09-07 21:55:00,
2013-09-07 17:00:00,98.4,68.4,29.84,SSE,157,4.0,5.0,38,0.00,,---,0.00,VWS V14.00,2013-09-07 22:00:00,
2013-09-07 17:05:00,98.3,68.3,29.84,SSE,153,6.0,8.0,38,0.00,,---,0.00,VWS V14.00,2013-09-07 22:05:00,
2013-09-07 17:10:00,98.2,69.0,29.84,SSE,153,4.0,4.0,39,0.00,,---,0.00,VWS V14.00,2013-09-07 22:10:00,
2013-09-07 17:15:00,98.2,69.8,29.84,SSE,150,3.0,9.0,40,0.00,,---,0.00,VWS V14.00,2013-09-07 22:15:00,
2013-09-07 17:20:00,98.0,69.6,29.84,SSE,150,4.0,6.0,40,0.00,,---,0.00,VWS V14.00,2013-09-07 22:20:00,
2013-09-07 17:25:00,98.0,70.3,29.84,SSE,150,5.0,5.0,41,0.00,,---,0.00,VWS V14.00,2013-09-07 22:25:00,
2013-09-07 17:30:00,97.9,68.8,29.84,SSE,150,6.0,6.0,39,0.00,,---,0.00,VWS V14.00,2013-09-07 22:30:00,
2013-09-07 17:35:00,97.8,68.7,29.84,SSE,150,5.0,6.0,39,0.00,,---,0.00,VWS V14.00,2013-09-07 22:35:00,
2013-09-07 17:40:00,97.4,69.1,29.84,SSE,150,5.0,6.0,40,0.00,,---,0.00,VWS V14.00,2013-09-07 22:40:00,
2013-09-07 17:45:00,97.0,67.9,29.84,SSE,150,4.0,7.0,39,0.00,,---,0.00,VWS V14.00,2013-09-07 22:45:00,
2013-09-07 17:50:00,96.8,68.5,29.84,SSE,150,2.0,5.0,40,0.00,,---,0.00,VWS V14.00,2013-09-07 22:50:00,
2013-09-07 17:55:00,96.7,68.4,29.84,SSE,150,3.0,4.0,40,0.00,,---,0.00,VWS V14.00,2013-09-07 22:55:00,
2013-09-07 18:00:00,96.7,69.1,29.84,SSE,150,2.0,4.0,41,0.00,,---,0.00,VWS V14.00,2013-09-07 23:00:00,
2013-09-07 18:05:00,96.8,69.2,29.84,SSE,150,3.0,3.0,41,0.00,,---,0.00,VWS V14.00,2013-09-07 23:05:00,
2013-09-07 18:10:00,96.7,68.4,29.84,SSE,150,3.0,3.0,40,0.00,,---,0.00,VWS V14.00,2013-09-07 23:10:00,
2013-09-07 18:15:00,96.7,68.4,29.84,SSE,150,0.0,4.0,40,0.00,,---,0.00,VWS V14.00,2013-09-07 23:15:00,
2013-09-07 18:20:00,96.6,69.8,29.84,SSE,150,0.0,3.0,42,0.00,,---,0.00,VWS V14.00,2013-09-07 23:20:00,
2013-09-07 18:25:00,96.5,70.4,29.84,SSE,150,0.0,0.0,43,0.00,,---,0.00,VWS V14.00,2013-09-07 23:25:00,
2013-09-07 18:30:00,96.4,71.6,29.84,SSE,150,0.0,0.0,45,0.00,,---,0.00,VWS V14.00,2013-09-07 23:30:00,
2013-09-07 18:35:00,96.2,71.4,29.84,SSE,150,0.0,1.0,45,0.00,,---,0.00,VWS V14.00,2013-09-07 23:35:00,
2013-09-07 18:40:00,96.0,72.5,29.84,SSE,150,0.0,0.0,47,0.00,,---,0.00,VWS V14.00,2013-09-07 23:40:00,
2013-09-07 18:45:00,95.6,72.2,29.84,SSE,150,0.0,0.0,47,0.00,,---,0.00,VWS V14.00,2013-09-07 23:45:00,
2013-09-07 18:50:00,95.4,73.2,29.84,SSE,150,0.0,0.0,49,0.00,,---,0.00,VWS V14.00,2013-09-07 23:50:00,
2013-09-07 18:55:00,95.2,73.0,29.84,SSE,150,0.0,0.0,49,0.00,,---,0.00,VWS V14.00,2013-09-07 23:55:00,
2013-09-07 19:00:00,94.9,73.4,29.84,SSE,150,0.0,0.0,50,0.00,,---,0.00,VWS V14.00,2013-09-08 00:00:00,
2013-09-07 19:05:00,94.5,73.0,29.84,SSE,150,0.0,0.0,50,0.00,,---,0.00,VWS V14.00,2013-09-08 00:05:00,
2013-09-07 19:10:00,94.0,73.1,29.84,SSE,150,0.0,0.0,51,0.00,,---,0.00,VWS V14.00,2013-09-08 00:10:00,
2013-09-07 19:15:00,93.5,74.4,29.84,SSE,150,0.0,0.0,54,0.00,,---,0.00,VWS V14.00,2013-09-08 00:15:00,
2013-09-07 19:20:00,92.8,73.7,29.84,SSE,150,0.0,0.0,54,0.00,,---,0.00,VWS V14.00,2013-09-08 00:20:00,
2013-09-07 19:25:00,92.1,72.5,29.84,SSE,150,0.0,0.0,53,0.00,,---,0.00,VWS V14.00,2013-09-08 00:25:00,
2013-09-07 19:30:00,91.5,72.5,29.83,SSE,150,2.0,3.0,54,0.00,,---,0.00,VWS V14.00,2013-09-08 00:30:00,
2013-09-07 19:35:00,90.9,72.5,29.83,SSE,150,2.0,3.0,55,0.00,,---,0.00,VWS V14.00,2013-09-08 00:35:00,
2013-09-07 19:40:00,90.1,71.8,29.84,SSE,150,3.0,3.0,55,0.00,,---,0.00,VWS V14.00,2013-09-08 00:40:00,
2013-09-07 19:45:00,89.3,72.1,29.84,SSE,150,1.0,3.0,57,0.00,,---,0.00,VWS V14.00,2013-09-08 00:45:00,
2013-09-07 19:50:00,88.6,71.9,29.84,SSE,150,0.0,1.0,58,0.00,,---,0.00,VWS V14.00,2013-09-08 00:50:00,
2013-09-07 19:55:00,88.1,72.0,29.84,SSE,150,0.0,0.0,59,0.00,,---,0.00,VWS V14.00,2013-09-08 00:55:00,
2013-09-07 20:00:00,87.7,72.1,29.84,SSE,150,0.0,0.0,60,0.00,,---,0.00,VWS V14.00,2013-09-08 01:00:00,
2013-09-07 20:05:00,87.3,72.2,29.84,SSE,150,4.0,4.0,61,0.00,,---,0.00,VWS V14.00,2013-09-08 01:05:00,
2013-09-07 20:10:00,86.9,72.3,29.84,SSE,150,2.0,3.0,62,0.00,,---,0.00,VWS V14.00,2013-09-08 01:10:00,
2013-09-07 20:15:00,86.5,72.4,29.84,SSE,150,2.0,3.0,63,0.00,,---,0.00,VWS V14.00,2013-09-08 01:15:00,
2013-09-07 20:20:00,86.0,71.9,29.84,SSE,150,3.0,4.0,63,0.00,,---,0.00,VWS V14.00,2013-09-08 01:20:00,
2013-09-07 20:25:00,85.6,71.6,29.84,SSE,150,3.0,4.0,63,0.00,,---,0.00,VWS V14.00,2013-09-08 01:25:00,
2013-09-07 20:30:00,85.1,71.1,29.85,SSE,150,3.0,4.0,63,0.00,,---,0.00,VWS V14.00,2013-09-08 01:30:00,
2013-09-07 20:35:00,84.8,70.8,29.85,SSE,150,3.0,5.0,63,0.00,,---,0.00,VWS V14.00,2013-09-08 01:35:00,
2013-09-07 20:40:00,84.5,70.1,29.85,SSE,150,5.0,5.0,62,0.00,,---,0.00,VWS V14.00,2013-09-08 01:40:00,
2013-09-07 20:45:00,84.3,69.9,29.85,SSE,150,3.0,4.0,62,0.00,,---,0.00,VWS V14.00,2013-09-08 01:45:00,
2013-09-07 20:50:00,84.1,70.2,29.85,SSE,150,3.0,4.0,63,0.00,,---,0.00,VWS V14.00,2013-09-08 01:50:00,
2013-09-07 20:55:00,83.9,70.0,29.85,SSE,150,3.0,4.0,63,0.00,,---,0.00,VWS V14.00,2013-09-08 01:55:00,
2013-09-07 21:00:00,83.6,69.7,29.85,SSE,150,2.0,3.0,63,0.00,,---,0.00,VWS V14.00,2013-09-08 02:00:00,
2013-09-07 21:05:00,83.4,69.5,29.85,SSE,150,3.0,4.0,63,0.00,,---,0.00,VWS V14.00,2013-09-08 02:05:00,
2013-09-07 21:10:00,83.2,69.3,29.85,SSE,150,3.0,5.0,63,0.00,,---,0.00,VWS V14.00,2013-09-08 02:10:00,
2013-09-07 21:15:00,83.1,68.7,29.85,SSE,150,3.0,5.0,62,0.00,,---,0.00,VWS V14.00,2013-09-08 02:15:00,
2013-09-07 21:20:00,83.0,68.7,29.86,SSE,150,3.0,4.0,62,0.00,,---,0.00,VWS V14.00,2013-09-08 02:20:00,
2013-09-07 21:25:00,82.9,68.6,29.86,SSE,150,3.0,4.0,62,0.00,,---,0.00,VWS V14.00,2013-09-08 02:25:00,
2013-09-07 21:30:00,82.8,68.5,29.86,SSE,150,3.0,3.0,62,0.00,,---,0.00,VWS V14.00,2013-09-08 02:30:00,
2013-09-07 21:35:00,82.7,68.4,29.86,SSE,150,3.0,4.0,62,0.00,,---,0.00,VWS V14.00,2013-09-08 02:35:00,
2013-09-07 21:40:00,82.6,68.3,29.86,SSE,150,2.0,4.0,62,0.00,,---,0.00,VWS V14.00,2013-09-08 02:40:00,
2013-09-07 21:45:00,82.5,68.6,29.86,SSE,150,3.0,3.0,63,0.00,,---,0.00,VWS V14.00,2013-09-08 02:45:00,
2013-09-07 21:50:00,82.3,68.5,29.86,SSE,150,1.0,4.0,63,0.00,,---,0.00,VWS V14.00,2013-09-08 02:50:00,
2013-09-07 21:55:00,82.1,68.3,29.87,SSE,150,3.0,5.0,63,0.00,,---,0.00,VWS V14.00,2013-09-08 02:55:00,
2013-09-07 22:00:00,82.0,68.2,29.87,SSE,150,3.0,5.0,63,0.00,,---,0.00,VWS V14.00,2013-09-08 03:00:00,
2013-09-07 22:05:00,81.9,67.6,29.87,SSE,150,4.0,4.0,62,0.00,,---,0.00,VWS V14.00,2013-09-08 03:05:00,
2013-09-07 22:10:00,81.8,67.5,29.87,SSE,150,2.0,4.0,62,0.00,,---,0.00,VWS V14.00,2013-09-08 03:10:00,
2013-09-07 22:15:00,81.8,67.5,29.87,SSE,150,4.0,5.0,62,0.00,,---,0.00,VWS V14.00,2013-09-08 03:15:00,
2013-09-07 22:20:00,81.8,67.5,29.87,SSE,150,4.0,5.0,62,0.00,,---,0.00,VWS V14.00,2013-09-08 03:20:00,
2013-09-07 22:25:00,81.9,67.1,29.87,SSE,150,3.0,5.0,61,0.00,,---,0.00,VWS V14.00,2013-09-08 03:25:00,
2013-09-07 22:30:00,82.0,67.2,29.87,SSE,150,5.0,6.0,61,0.00,,---,0.00,VWS V14.00,2013-09-08 03:30:00,
2013-09-07 22:35:00,82.1,67.3,29.87,SSE,150,2.0,6.0,61,0.00,,---,0.00,VWS V14.00,2013-09-08 03:35:00,
2013-09-07 22:40:00,82.1,67.3,29.87,SSE,150,3.0,5.0,61,0.00,,---,0.00,VWS V14.00,2013-09-08 03:40:00,
2013-09-07 22:45:00,82.1,67.3,29.87,SSE,150,3.0,5.0,61,0.00,,---,0.00,VWS V14.00,2013-09-08 03:45:00,
2013-09-07 22:50:00,82.0,67.2,29.87,SSE,150,3.0,5.0,61,0.00,,---,0.00,VWS V14.00,2013-09-08 03:50:00,
2013-09-07 22:55:00,82.0,66.8,29.87,SSE,150,3.0,5.0,60,0.00,,---,0.00,VWS V14.00,2013-09-08 03:55:00,
2013-09-07 23:00:00,82.0,66.8,29.87,SSE,150,3.0,7.0,60,0.00,,---,0.00,VWS V14.00,2013-09-08 04:00:00,
2013-09-07 23:01:00,82.0,66.8,29.87,SSE,150,6.0,7.0,60,0.00,,---,0.00,VWS V14.00,2013-09-08 04:01:00,
2013-09-07 23:06:00,82.0,66.8,29.87,SSE,150,3.0,6.0,60,0.00,,---,0.00,VWS V14.00,2013-09-08 04:06:00,
2013-09-07 23:11:00,82.0,66.8,29.87,SSE,150,2.0,5.0,60,0.00,,---,0.00,VWS V14.00,2013-09-08 04:11:00,
2013-09-07 23:16:00,81.9,66.7,29.87,SSE,150,2.0,4.0,60,0.00,,---,0.00,VWS V14.00,2013-09-08 04:16:00,
2013-09-07 23:21:00,81.8,66.6,29.87,SSE,150,2.0,5.0,60,0.00,,---,0.00,VWS V14.00,2013-09-08 04:21:00,
2013-09-07 23:26:00,81.7,66.9,29.87,SSE,150,1.0,3.0,61,0.00,,---,0.00,VWS V14.00,2013-09-08 04:26:00,
2013-09-07 23:31:00,81.6,66.9,29.87,SSE,150,0.0,1.0,61,0.00,,---,0.00,VWS V14.00,2013-09-08 04:31:00,
2013-09-07 23:36:00,81.4,66.7,29.87,SSE,150,0.0,0.0,61,0.00,,---,0.00,VWS V14.00,2013-09-08 04:36:00,
2013-09-07 23:41:00,81.3,66.6,29.87,SSE,150,0.0,0.0,61,0.00,,---,0.00,VWS V14.00,2013-09-08 04:41:00,
2013-09-07 23:46:00,81.1,66.9,29.87,SSE,150,0.0,0.0,62,0.00,,---,0.00,VWS V14.00,2013-09-08 04:46:00,
2013-09-07 23:51:00,80.9,67.1,29.87,SSE,150,0.0,0.0,63,0.00,,---,0.00,VWS V14.00,2013-09-08 04:51:00,
2013-09-07 23:56:00,80.7,67.4,29.87,SSE,150,0.0,0.0,64,0.00,,---,0.00,VWS V14.00,2013-09-08 04:56:00,